Regional Weather Roundup
Issued by NWS Charleston, SC

Current Version | Previous Version | Text Only | Print | Product List | Glossary Off
Versions: 1 2 3 4 5 6 7 8 9 10 11 12 13 14 15 16 17 18 19 20 21 22 23 24 25 26 27 28 29 30 31 32 33 34 35 36 37 38 39 40 41 42 43 44 45 46 47 48 49 50
000 ASUS42 KCHS 232027 RWRCHS REGIONAL WEATHER ROUNDUP NATIONAL WEATHER SERVICE CHARLESTON SC 400 PM EDT SUN JUL 23 2017 NOTE: "FAIR" INDICATES FEW OR NO CLOUDS BELOW 12,000 FEET WITH NO SIGNIFICANT WEATHER AND/OR OBSTRUCTIONS TO VISIBILITY. NOT ALL STATIONS ARE QUALITY CONTROLLED. USE DATA WITH CAUTION... ESPECIALLY DEWPOINT OBSERVATIONS. SCZ027-030-031-034>040-042>050-232100- ...SOUTHEAST SOUTH CAROLINA... CITY SKY/WX TMP DP RH WIND PRES REMARKS N CHARLESTON CLOUDY 86 77 74 S18 29.90S HX 97 WATERFRONT PRK N/A 84 80 88 S16 29.90F HX 97 JOHNS ISLAND FAIR 88 79 74 S17G29 29.92S HX 102 PINOPOLIS N/A 91 75 59 SW5 29.80F HX 102 MONCKS CORNER FAIR 90 73 58 S16G25 29.87F THUNDER HX 98 SUMMERVILLE MOCLDY 88 79 74 SE7 29.89S HX 102 BEAUFORT MCAS MOSUNNY 90 79 70 S16G26 29.93S HX 106 BEAUFORT ARPT FAIR 84 77 79 S18G31 29.93R HX 94 HILTON HEAD IS MOSUNNY 86 79 79 S16G28 29.94 HX 99 WALTERBORO PTCLDY 91 77 62 S14 29.90S HX 105 ALLENDALE NOT AVBL ...SOUTHERN MIDLANDS AND PEE DEE... CITY SKY/WX TMP DP RH WIND PRES REMARKS GEORGETOWN FAIR 88 81 79 S22G28 29.91S HX 105 KINGSTREE FAIR 90 73 58 S7 29.87R HX 98 ORANGEBURG MOSUNNY 93 74 53 S8 29.87F HX 103 BARNWELL FAIR 97 75 49 SW9G15 29.87F HX 109 AIKEN MOCLDY 90 73 58 S8 29.91S THUNDER HX 98 MANNING FAIR 93 68 43 SW13G21 29.87S HX 97 COLUMBIA PTSUNNY 97 74 47 S13 29.83F HX 108 SUMTER MOSUNNY 95 74 50 S14G23 29.83F HX 105 FLORENCE MOSUNNY 94 77 57 S16 29.84F HX 108 MYRTLE BEACH NOT AVBL N MYRTLE BEACH MOSUNNY 87 79 76 S23G32 29.88F HX 101 $$ GAZ063-065-086>088-099>101-113>116-118-119-134>141-150-232100- ...SOUTHEAST GEORGIA... CITY SKY/WX TMP DP RH WIND PRES REMARKS SAVANNAH ARPT TSTM 89 74 60 S17G30 29.94R VSB 1 HX 98 HUNTER AAF PTSUNNY 82 77 83 SW14G24 29.93R THUNDER HX 91 FORT STEWART TSTM 77 73 88 S8G20 29.94R FOG STATESBORO CLOUDY 85 72 63 SW6 29.92R HX 91 SYLVANIA CLOUDY 81 77 89 W3 29.91F CLAXTON MOCLDY 81 76 83 CALM 29.94R THUNDER ...CSRA...CENTRAL AND FAR SOUTHEAST GEORGIA... CITY SKY/WX TMP DP RH WIND PRES REMARKS THOMSON MOSUNNY 94 73 49 W12G23 29.92F HX 102 AUGUSTA-BUSH MOSUNNY 97 73 45 W10 29.86F HX 107 AUGUSTA-DANIEL PTSUNNY 94 70 45 SW10 29.88F HX 100 SWAINSBORO CLOUDY 82 75 78 S7 29.93S VIDALIA CLOUDY 75 73 94 SE5 29.92F EASTMAN MOCLDY 93 60 33 S12 29.94S HX 93 HAZLEHURST MOCLDY 81 77 85 SW18G30 29.92S ALMA LGT RAIN 79 76 90 CALM 29.97S FOG WAYCROSS CLOUDY 88 80 77 SW15 29.98R HX 103 JESUP NOT AVBL BAXLEY FAIR 86 81 84 SW17 29.95S HX 102 BRUNSWICK CLOUDY 79 77 94 S6 29.99R SAINT SIMONS CLOUDY 78 76 93 SW7 29.97F $$ SCZ027-028-034-036>038-045-046-048>050-GAZ119-141-232100- ...LAKE AND SUPPLEMENTAL COASTAL OBSERVATIONS... STATION/POSITION TIME TEMP WIND PRES WAVE SWELL AIR SEA DIR/SP/G HT/PER HT/PER/DIR (UTC) (F) (DEG/KT/KT) (MB) (FT/S) (FT/S/D) WINYAH BAY 1930 86 200/ 17 1012.0F LAKE MURRAY 1950 92 210/ 9/ 11 1009.5F ACE BASIN NERRS 1930 87 180/ 3 1013.0S FORT PULASKI 2000 82 86 200/ 12/ 19 1014.2 SAPELO ISLAND 2000 85 200/ 14 1015.0 $$ ANZ835-935-AMZ111-154-330-350-352-354-370-450-454-472-232100- ...C-MAN AND BUOY OBSERVATIONS... STATION/POSITION TIME TEMP WIND PRES WAVE SWELL AIR SEA DIR/SP/G HT/PER HT/PER/DIR (UTC) (F) (DEG/KT/KT) (MB) (FT/S) (FT/S/D) BUOY 41004 2010 83 84 200/ 19/ 25 1013.6 BUOY 41008 1950 79 82 210/ 21/ 25 1013.7F 3/ 4 2/100/ 8 FOLLY BEACH CMAN 2000 83 190/ 22/ 25 1014.1F CAPERS NEARSHORE 2008 80 85 210/ 19/ 25 1012.8F FRIPP NEARSHORE 2008 83 86 200/ 21/ 29 1013.2F STATION/POSITION TIME TEMP WIND PRES WAVE SWELL AIR SEA DIR/SP/G HT/PER HT/PER/DIR (UTC) (F) (DEG/KT/KT) (MB) (FT/S) (FT/S/D) 5E ST. MARYS GA 2000 81 N/A 2/ 4 FRYING PAN BUOY 2010 83 84 210/ 23/ 27 1012.5 BUOY 41025 1950 84 84 220/ 23/ 27 1011.1F 7/ 7 5/140/10 CAPE LOOKOUT NC 2000 84 210/ 15/ 19 1011.5F BUOY 41002 1950 84 84 230/ 17/ 19 1016.4F 5/ 6 2/100/ 9 BUOY 41010 2010 83 85 170/ 8/ 10 1017.5 ST AUGUSTINE FL 2000 77 76 190/ 8/ 9 1016.8R $$

USA.gov is the U.S. government's official web portal to all federal, state and local government web resources and services.